Location: NJAA Observatory
(40.6819°N, 74.8979°W)
Time: 18:24:19
(UTC-04:00)

Vanguard 1 - All Passes

Search period start: 23 September 2014 00:00
Search period end: 03 October 2014 00:00
Orbit: 650 x 3837 km, 34.3° (Epoch: 20 September)

Date Brightness Start Highest point End Pass type
(mag) Time Alt. Az. Time Alt. Az. Time Alt. Az.
23 Sep - 01:20:17 10° W 01:36:06 24° SW 01:48:53 10° S visible
23 Sep - 13:57:13 10° SE 13:59:20 11° ESE 14:01:36 10° ESE daylight
23 Sep - 16:07:01 10° SSW 16:18:45 42° SE 16:37:28 10° E daylight
23 Sep - 18:26:08 10° WSW 18:42:18 69° SSE 19:05:42 10° E daylight
23 Sep - 20:48:29 10° W 21:08:54 70° SSW 21:31:28 10° ESE visible
23 Sep - 23:13:31 10° W 23:34:43 47° SW 23:53:04 10° SSE visible
24 Sep - 01:44:50 10° W 01:56:55 18° SW 02:07:14 10° SSW visible
24 Sep - 14:13:17 10° SSE 14:19:53 17° SE 14:28:37 10° E daylight
24 Sep - 16:27:46 10° SW 16:39:59 50° SSE 17:00:00 10° E daylight
24 Sep - 18:47:39 10° WSW 19:04:17 72° S 19:27:53 10° E visible
24 Sep - 21:10:22 10° W 21:30:57 66° SSW 21:53:05 10° ESE visible
24 Sep - 23:35:58 10° W 23:56:06 40° SW 00:13:33 10° SSE visible
25 Sep - 02:12:50 10° WSW 02:17:40 11° WSW 02:22:13 10° SW visible
25 Sep - 14:32:23 10° S 14:40:33 24° SE 14:52:34 10° E daylight
25 Sep - 16:48:46 10° SW 17:01:26 57° SSE 17:22:24 10° E daylight
25 Sep - 19:09:15 10° W 19:26:21 73° S 19:50:00 10° ESE visible
25 Sep - 21:32:17 10° W 21:52:53 60° SSW 22:14:30 10° SE visible
25 Sep - 23:58:45 10° W 00:17:20 32° SW 00:33:35 10° S visible
26 Sep - 14:52:20 10° SSW 15:01:22 31° SE 15:15:42 10° E daylight
26 Sep - 17:09:58 10° WSW 17:23:03 63° SSE 17:44:46 10° E daylight
26 Sep - 19:30:56 10° W 19:48:27 71° S 20:12:02 10° ESE visible
26 Sep - 21:54:18 10° W 22:14:41 54° SSW 22:35:39 10° SE visible
27 Sep - 00:22:06 10° W 00:38:25 25° SW 00:52:57 10° S visible
27 Sep - 15:12:46 10° SSW 15:22:21 39° SE 15:38:26 10° E daylight
27 Sep - 17:31:18 10° WSW 17:44:49 68° SSE 18:07:04 10° E daylight
27 Sep - 19:52:39 10° W 20:10:31 69° SSW 20:33:55 10° ESE visible
27 Sep - 22:16:26 10° W 22:36:21 47° SSW 22:56:30 10° SSE visible
28 Sep - 00:46:32 10° W 00:59:25 18° SW 01:11:13 10° SSW visible
28 Sep - 13:19:50 10° SSE 13:24:12 14° SE 13:29:38 10° E daylight
28 Sep - 15:33:31 10° SW 15:43:31 47° SSE 16:00:58 10° E daylight
28 Sep - 17:52:45 10° WSW 18:06:42 71° S 18:29:21 10° E daylight
28 Sep - 20:14:24 10° W 20:32:32 64° SSW 20:55:37 10° ESE visible
28 Sep - 22:38:47 10° W 22:57:52 39° SW 23:16:58 10° SSE visible
29 Sep - 01:14:00 10° WSW 01:20:22 12° SW 01:26:28 10° SW visible
29 Sep - 13:38:36 10° S 13:44:51 20° SE 13:53:51 10° E daylight
29 Sep - 15:54:30 10° SW 16:04:53 55° SSE 16:23:23 10° E daylight
29 Sep - 18:14:16 10° W 18:28:40 71° S 18:51:34 10° ESE daylight
29 Sep - 20:36:13 10° W 20:54:28 59° SSW 21:17:05 10° SE visible
29 Sep - 23:01:28 10° W 23:19:15 32° SW 23:36:55 10° S visible
30 Sep - 13:58:28 10° SSW 14:05:39 28° SE 14:16:59 10° E daylight
30 Sep - 16:15:40 10° WSW 16:26:25 61° SSE 16:45:45 10° E daylight
30 Sep - 18:35:51 10° W 18:50:39 70° S 19:13:40 10° ESE visible
30 Sep - 20:58:08 10° W 21:16:19 52° SSW 21:38:16 10° SE visible
30 Sep - 23:24:45 10° W 23:40:31 25° SW 23:56:10 10° S visible
01 Oct - 14:18:52 10° SSW 14:26:36 36° SE 14:39:40 10° E daylight
01 Oct - 16:36:57 10° WSW 16:48:05 66° SSE 17:08:06 10° E daylight
01 Oct - 18:57:28 10° W 19:12:38 67° SSW 19:35:38 10° ESE visible
01 Oct - 21:20:10 10° W 21:38:03 45° SSW 21:59:06 10° SSE visible
01 Oct - 23:49:09 10° W 00:01:44 18° SW 00:14:13 10° SSW visible
02 Oct - 12:27:48 10° SE 12:28:58 10° SE 12:30:13 10° ESE daylight
02 Oct - 14:39:37 10° SW 14:47:44 44° SSE 15:02:09 10° E daylight
02 Oct - 16:58:21 10° WSW 17:09:51 69° S 17:30:24 10° E daylight
02 Oct - 19:19:08 10° W 19:34:36 62° SSW 19:57:23 10° ESE visible
02 Oct - 21:42:26 10° W 21:59:40 38° SW 22:19:30 10° SSE visible
